Regional Weather Roundup
Issued by NWS Little Rock, AR

Home | Current Version | Previous Version | Text Only | Print | Product List | Glossary Off
Versions: 1 2 3 4 5 6 7 8 9 10 11 12 13 14 15 16 17 18 19 20 21 22 23 24 25 26 27

000
ASUS44 KLZK 231705
RWRLZK

WEATHER ROUNDUP FOR ARKANSAS
NATIONAL WEATHER SERVICE LITTLE ROCK AR
1200 PM CDT THU OCT 23 2014

NOTE: "FAIR" INDICATES FEW OR NO CLOUDS BELOW 12,000 FEET WITH NO
SIGNIFICANT WEATHER AND/OR OBSTRUCTIONS TO VISIBILITY.

ARZ001-003-010-029-231800-
NORTHWEST ARKANSAS

CITY           SKY/WX    TMP DP  RH WIND       PRES   REMARKS
FAYETTEVILLE   LGT RAIN  57  52  83 W3        30.21S
FORT SMITH     SUNNY     65  49  56 NE7       30.20F
HARRISON       CLOUDY    59  49  69 SE6       30.20S
BENTONVILLE    CLOUDY    57  52  82 SW7       30.20S
ROGERS         CLOUDY    56  52  86 S6        30.20F
SILOAM SPGS    CLOUDY    55  48  76 CALM      30.22R
HIGHFILL       LGT RAIN  56  52  86 S5        30.20S
SPRINGDALE     MOSUNNY   57  52  82 W6        30.22S
$$

ARZ004-005-016-231800-
NORTH CENTRAL ARKANSAS

CITY           SKY/WX    TMP DP  RH WIND       PRES   REMARKS
BATESVILLE     CLOUDY    52  46  82 CALM      30.23S
FLIPPIN        CLOUDY    55  45  67 SE5       30.21F
MTN HOME       CLOUDY    57  46  66 VRB6      30.20F
$$

ARZ040-041-231800-
WEST CENTRAL ARKANSAS

CITY           SKY/WX    TMP DP  RH WIND       PRES   REMARKS
MENA           CLOUDY    63  52  67 CALM      30.21S
MOUNT IDA      CLOUDY    60  51  72 CALM      30.19F
$$

ARZ009-017-025-026-028-231800-
NORTHEAST ARKANSAS

CITY           SKY/WX    TMP DP  RH WIND       PRES   REMARKS
CORNING        FAIR      54  46  76 E3        30.24F
JONESBORO      CLOUDY    58  45  62 CALM      30.22S
NEWPORT        CLOUDY    55  48  77 E5        30.24F
WALNUT RIDGE   CLOUDY    54  45  71 NE3       30.23F
BLYTHEVILLE    CLOUDY    60  44  55 E3        30.22F
$$

ARZ022-023-033-042-044-231800-
CENTRAL ARKANSAS

CITY           SKY/WX    TMP DP  RH WIND       PRES   REMARKS
LITTLE ROCK    CLOUDY    60  47  61 NE3       30.22F
N LITTLE ROCK  CLOUDY    55  48  76 N3        30.22F
JACKSONVILLE   CLOUDY    55  47  74 W3        30.22F
SEARCY         CLOUDY    55  46  71 CALM      30.24S
HOT SPRINGS    CLOUDY    61  45  55 CALM      30.22F
RUSSELLVILLE   CLOUDY    57  48  72 CALM      30.21F
$$

ARZ036-231800-
EAST ARKANSAS

CITY           SKY/WX    TMP DP  RH WIND       PRES   REMARKS
WEST MEMPHIS   CLOUDY    60  44  55 VRB5      30.20F
$$

ARZ050-053-066-070-073-231800-
SOUTHWEST ARKANSAS

CITY           SKY/WX    TMP DP  RH WIND       PRES   REMARKS
ARKADELPHIA    FAIR      59  49  69 CALM      30.22F
CAMDEN         CLOUDY    57  48  72 CALM      30.21S
TEXARKANA      CLOUDY    63  50  62 SE6       30.20F
EL DORADO      CLOUDY    57  50  77 CALM      30.20S
DE QUEEN       CLOUDY    64  50  60 E7        30.18F
$$

ARZ056-057-069-231800-
SOUTHEAST ARKANSAS

CITY           SKY/WX    TMP DP  RH WIND       PRES   REMARKS
PINE BLUFF     CLOUDY    58  46  64 CALM      30.21F
STUTTGART      CLOUDY    55  48  76 SW5       30.23S
MONTICELLO     CLOUDY    57  48  72 NE3       30.19F

$$





USA.gov is the U.S. government's official web portal to all federal, state and local government web resources and services.